Regional Weather Roundup
Issued by NWS

Home | Current Version | Previous Version | Text Only | Print | Product List | Glossary Off
Versions: 1 2 3 4 5 6 7 8 9 10 11 12 13 14 15 16 17 18 19 20 21 22 23 24 25 26 27 28 29 30 31 32 33 34 35 36 37 38 39 40 41 42 43 44 45 46 47 48 49 50

000
ASUS43 KMPX 280801
RWRMN
WEATHER ROUNDUP FOR MINNESOTA
NATIONAL WEATHER SERVICE TWIN CITIES/CHANHASSEN MN
300 AM CDT FRI AUG 28 2015


NOTE: "FAIR" INDICATES FEW OR NO CLOUDS BELOW 12,000 FEET WITH NO
SIGNIFICANT WEATHER AND/OR OBSTRUCTIONS TO VISIBILITY. N/A MEANS
CURRENT SKY AND/OR WEATHER CONDITIONS ARE NOT AVAILABLE.

MNZ060>063-068>070-280900-
   Twin Cities Metro

CITY           SKY/WX    TMP DP  RH WIND       PRES   REMARKS
TWIN CITIES    CLOUDY    66  60  81 S5        30.00F
ST PAUL        CLOUDY    63  60  90 SE6       30.00F
CRYSTAL        CLOUDY    66  60  81 S7        29.98F
BLAINE         MOCLDY    64  63  94 S6        29.99S
LAKEVILLE      CLOUDY    63  61  94 S7        30.00F
EDEN PRAIRIE   CLOUDY    65  60  84 S12       29.98F
SOUTH ST PAUL  CLOUDY    64  59  85 S5        30.00S
LAKE ELMO      FAIR      63  59  88 S6        30.01F
$$
MNZ001>005-007-008-013>017-022>024-027-028-280900-
   Northwest Minnesota

CITY           SKY/WX    TMP DP  RH WIND       PRES   REMARKS
BEMIDJI        CLEAR     62  62  99 S6        29.92S
HALLOCK        CLEAR     63  61  94 S8        29.83F
ROSEAU         CLEAR     61  54  77 S3        29.86F HAZE
WARROAD        CLEAR     61  57  88 CALM      29.87F
THIEF RVR FALL CLEAR    N/A N/A N/A S7        29.88S
CROOKSTON      CLEAR     64  64 100 S8        29.88S
FOSSTON        CLEAR     59  57  94 S5        29.91S
DETROIT LAKES  PTCLDY    64  63  94 S7        29.94R
MOORHEAD       CLEAR     64  63  94 S8        29.91R
PARK RAPIDS    CLOUDY    65  63  93 S7        29.94S FOG
MAHNOMEN       FAIR      63  62  97 S5        29.90S
$$
MNZ006-009>011-018-025>026-280900-
   North Central Minnesota

CITY           SKY/WX    TMP DP  RH WIND       PRES   REMARKS
BAUDETTE       PTCLDY    60  59  96 SW3       29.88S FOG
FLAG ISLAND    MOCLDY    64  63  94 S5        29.85F FOG
INTL FALLS     CLOUDY    62  60  93 VRB3      29.90F
WASKISH        PTCLDY    64  63  94 S6        29.90S
BIG FORK         N/A     59  57  94 CALM      29.93F FOG
LONGVILLE      PTCLDY    59  59 100 S3        29.95R
GRAND RAPIDS     N/A     59  55  88 S6        29.95F
CRANE LAKE     MOCLDY    59  57  94 S3        29.94F
ORR            CLEAR     59  55  88 CALM      29.92S
COOK           CLEAR     61  59  94 S3        29.96R
WALKER         CLOUDY    63  63  99 S5        29.93S FOG
$$
MNZ012-019>021-037-280900-
   Northeast Minnesota

CITY           SKY/WX    TMP DP  RH WIND       PRES   REMARKS
DULUTH         PTCLDY    58  55  90 SW5       29.98S
ELY            CLEAR     57  55  94 CALM      29.96S
HIBBING        FOG       51  51 100 CALM      29.97R VSB 1/2
EVELETH        PTCLDY    57  55  94 CALM      29.98S
DULUTH HARBOR  CLOUDY    57  52  82 CALM      29.98S
TWO HARBORS    CLOUDY    63  57  82 CALM      29.96S
SILVER BAY     CLOUDY    57  55  94 CALM      29.96S
GRAND MARAIS     N/A     51  49  92 CALM      29.96S
G MARAIS ARPRT CLOUDY    54  46  76 CALM      29.99F
$$
MNZ029>031-032-039>041-046>048-054>057-064-280900-
   West Central Minnesota

CITY           SKY/WX    TMP DP  RH WIND       PRES   REMARKS
FERGUS FALLS   CLEAR     63  63 100 S6        29.93F
WHEATON        CLEAR     61  61 100 S8        29.95R
MORRIS         CLEAR     61  61 100 SE7       29.94S FOG
ALEXANDRIA     MOCLDY    62  62 100 S8        29.97S
ELBOW LAKE     FOG       63  63 100 SE7       29.94R VSB 1/2
WADENA         FOG       63  63 100 S5        29.94F VSB 1/2
GLENWOOD       PTCLDY    61  61 100 S7        29.97F
APPLETON       CLEAR     64  61  88 SE6       29.94S
BENSON         PTCLDY    63  59  88 S5        29.96S
ORTONVILLE     FOG       61  59  94 SE3       29.94S VSB 1
MADISON        PTCLDY    61  59  94 E6        29.94F FOG
WILLMAR        FAIR      61  61 100 SE5       29.98S
$$
MNZ033>034-036-042>043-049>051-058-059-280900-
   Central Minnesota

CITY           SKY/WX    TMP DP  RH WIND       PRES   REMARKS
ST CLOUD       PTCLDY    60  59  96 S6        29.97F
SAUK CENTRE    FAIR      59  58  98 S3        29.97S
PAYNESVILLE    PTCLDY    61  59  94 SE6       29.98S
AITKIN         CLOUDY    66  59  77 S8        29.95S
PINE RIVER     CLOUDY    64  64 100 S6        29.99R
BRAINERD       CLOUDY    63  60  90 S8        29.97F
STAPLES        CLOUDY    63  63 100 S6        29.96S FOG
LONG PRAIRIE   FAIR      59  57  94 CALM      29.97F
LITTLE FALLS   MOCLDY    59  57  94 S3        29.97F
LITCHFIELD     MOCLDY    63  63 100 CALM      29.99S
BUFFALO        MOCLDY    62  58  87 CALM      29.99F
MAPLE LAKE     MOCLDY    61  60  96 CALM      30.00S
$$
MNZ037-044-045-052-053-280900-
   East Central Minnesota

CITY           SKY/WX    TMP DP  RH WIND       PRES   REMARKS
PRINCETON      PTCLDY    63  59  88 S6        29.98F
MORA           PTCLDY    55  55 100 CALM      30.00S
CAMBRIDGE      PTCLDY    63  54  72 S5        29.97F
RUSH CITY      MOCLDY    60  58  91 S5        29.99F
MOOSE LAKE     MOCLDY    61  57  88 SW6       29.96S
HINCKLEY       FAIR      54  54 100 CALM      29.99S FOG
CLOQUET        MOCLDY    59  55  88 CALM      29.98S
MCGREGOR       PTCLDY    61  59  94 S3        29.97R
$$
MNZ071>073-080-081-089-090-097-098-280900-
   Southwest Minnesota

CITY           SKY/WX    TMP DP  RH WIND       PRES   REMARKS
MONTEVIDEO     PTCLDY    61  61 100 CALM      29.98R
GRANITE FALLS  MOCLDY    61  60  97 SE3       29.97F
CANBY          MOCLDY    62  60  95 SE5       29.94F FOG
MARSHALL       CLOUDY    64  57  77 S8        29.96F
REDWOOD FALLS  CLOUDY    61  60  97 S3        29.95F
OLIVIA         MOCLDY    59  55  88 E3        29.96F
PIPESTONE      CLOUDY    64  63  94 S8        29.94F
WINDOM         CLOUDY    64  63  94 S9G17     29.98F
WORTHINGTON    CLOUDY    63  57  82 SE14G22   29.96F
JACKSON        LGT RAIN  63  63 100 SE12      30.00F
TRACY          CLOUDY    66  64  94 S12       29.97S
SLAYTON        CLOUDY    63  63 100 SE14      29.97F
$$
MNZ065>067-074>077-082>085-091>093-280900-
   South Central Minnesota

CITY           SKY/WX    TMP DP  RH WIND       PRES   REMARKS
MANKATO        CLOUDY    64  61  88 S7        29.97F
NEW ULM        CLOUDY    64  63  94 NE3       29.97S
ST JAMES       LGT RAIN  64  64 100 S13       29.99S
FAIRMONT       CLOUDY    63  57  82 S9        30.00F
GLENCOE        CLOUDY    63  61  95 SE5       29.98S
FARIBAULT      CLOUDY    64  61  88 S10       30.00F
OWATONNA       CLOUDY    64  61  88 S14G22    29.99F
WASECA         CLOUDY    63  59  88 MISG      30.00F
ALBERT LEA     LGT RAIN  63  63 100 E12       30.00F
$$
MNZ078>079-086>088-094>096-280900-
   Southeast Minnesota

CITY           SKY/WX    TMP DP  RH WIND       PRES   REMARKS
ROCHESTER      CLOUDY    63  59  87 S17G24    30.06F
RED WING       CLOUDY    66  59  77 S3        30.02S
STANTON        CLOUDY    66  60  81 S7        30.00F
DODGE CENTER   CLOUDY    63  59  88 S16       30.03F
WINONA         CLOUDY    66  59  77 SW5       30.06R
AUSTIN         LGT RAIN  63  61  94 S8        30.05F
PRESTON        CLOUDY    62  57  86 S10       30.07F
$$
ABBREVIATIONS USED IN REMARKS
   TC - TEMPERATURES IN CELSIUS
  WCI - WIND CHILL INDEX
   HX - HEAT INDEX
  VSB - VISIBILITY
$$


USA.gov is the U.S. government's official web portal to all federal, state and local government web resources and services.